BLITS DEB

Satellite information

Favourite Embed

Satellite Type and Status

DEBRISIN ORBIT

Key statistics

Satellite BLITS DEB at a glance.

Uptime

5873

Days in orbit

Revolutions

≈ 14.2

Per day

Orbit

SSO

Sun Synchronous Orbit

Inclination

98.7

Latest

Satellite identification and parameters

Extended collection of information and parameters for BLITS DEB.

Object identification

Identified? True

Debris? True

Object name: BLITS DEB

International designator: 2009-049J

Object number (NORAD): 39119

Object ID (CCSDS): 39119

Country: COMMONWEALTH OF INDEPENDENT STATES (CIS)

Current information (Y/N): Y

RCS size: SMALL

Orbital parameters

Period: 101.222 minutes

Inclination: 98.7296 deg

SMA: 7194.655 km

Apoapsis: 818.882 km

Periapsis: 814.159 km

RAAN: 248.8907 deg

Eccentricy: 0.00032818

Argument of periapsis: 304.5151 deg

Mean anomaly: 55.5717 deg

Mean motion: 14.22616227 rev/day

Mean motion (dot): 0.00000229 rev/day2

B* drag term: 0.00012234937 1/REarth

Two-line elements (TLE)

Creation date: Oct. 16, 2025, 2:37 a.m.

Reference frame: TEME

Reference center: EARTH

Epoch: Oct. 15, 2025, 8:11 p.m. UTC

TLE line 0: 0 BLITS DEB

TLE line 1: 1 39119U 09049J 25288.84147525 .00000229 00000-0 12235-3 0 9995

TLE line 2: 2 39119 98.7296 248.8907 0003282 304.5151 55.5717 14.22616227659887

Live tracking on map

Real-time ground track for satellite BLITS DEB.

In-orbit conjunctions

A list of the most updated potential collisions computed for object BLITS DEB.

Target Orbit TCA Probability of collision Miss distance Type
METEOR 2-8 DEB LEO 2025-08-23 20:40:49 0.0001140376 61.0 (m) DEBRIS
COSMOS 1275 DEB LEO 2024-11-06 16:29:05 0.0001070254 346.0 (m) DEBRIS
IRIDIUM 33 DEB LEO 2024-09-25 22:18:27 0.0003929813 104.0 (m) DEBRIS

Associated space launch

Russian meteorology satellite

BLITS DEB was lifted into orbit during the mission ‘Soyuz 2.1b/Fregat | Meteor-M 1’, on board a Soyuz 2.1b/Fregat space rocket.

The launch took place on Sept. 17, 2009, 3:55 p.m. from 31/6.

For more information about the launch, click the button.

Launch to space Soyuz 2.1b/Fregat | Meteor-M 1
Soyuz 2.1b/Fregat | Meteor-M 1

Agency: N/A

Status: Launch Successful

Launch date: Sept. 17, 2009, 3:55 p.m. UTC

Rocket: Soyuz 2.1b/Fregat

Launch pad: 31/6

Location: Baikonur Cosmodrome, Republic of Kazakhstan

...

Latest news about this satellite

There are no fresh news available about this satellite. Check back as we update our databases every day.


Newsletter sign-up

Weekly statistics, charts and insights to help you stay on top of the space industry.